GW0368 Weather Reports


time (UTC)temp
F
wind
direction
speed
knots
gust
knots
rain 1hr
in
rain 24hr
in
rain mn
in
humidity
%
barometer
mb
20260508044532 53 355 0.0 0.0 0.00 1.11 0.00 94 1014.8
20260508043033 53 355 0.0 0.0 0.00 1.11 0.00 94 1014.7
20260508041536 53 355 0.0 1.7 0.00 1.11 0.00 94 1014.8
20260508040055 53 355 0.0 1.7 0.00 1.11 1.11 94 1014.5
20260508034604 53 32 0.0 2.6 0.00 1.11 1.11 94 1014.0
20260508033020 53 38 0.0 3.5 0.00 1.11 1.11 93 1013.9
20260508031538 53 51 0.0 1.7 0.00 1.11 1.11 93 1014.0
20260508030052 53 51 0.0 0.0 0.00 1.11 1.11 93 1013.7
20260508024614 53 51 0.0 1.7 0.00 1.11 1.11 93 1013.6
20260508023055 53 51 0.0 1.7 0.00 1.11 1.11 93 1013.5
20260508021541 53 49 0.0 1.7 0.00 1.11 1.11 93 1013.4
20260508020009 53 49 0.0 0.9 0.00 1.11 1.11 93 1013.4
20260508014511 53 49 0.9 1.7 0.06 1.11 1.11 93 1013.2
20260508013010 53 49 0.9 1.7 0.11 1.11 1.11 92 1012.6
20260508011541 53 49 0.9 1.7 0.11 1.11 1.11 92 1012.5
20260508004502 53 247 0.9 2.6 0.05 1.05 1.05 92 1013.4
20260508003005 53 68 0.0 1.7 0.00 1.00 1.00 92 1012.5
20260508001514 53 129 2.6 7.8 0.00 1.00 1.00 92 1011.4
20260508000018 53 123 1.7 7.0 0.00 1.00 1.00 92 1011.5
20260507234536 53 5 2.6 7.0 0.00 1.00 1.00 92 1011.5
20260507233018 53 38 1.7 7.0 0.00 1.00 1.00 92 1011.6
20260507231523 53 72 1.7 7.0 0.00 1.00 1.00 92 1011.5
20260507230057 53 65 2.6 7.0 0.00 1.00 1.00 92 1011.3
20260507224559 53 33 3.5 8.7 0.00 1.00 1.00 93 1011.2
20260507223102 53 54 2.6 7.8 0.00 1.00 1.00 92 1011.1
20260507221600 53 80 3.5 7.8 0.00 1.00 1.00 92 1010.8
20260507220100 54 85 4.3 7.8 0.00 1.00 1.00 92 1010.7
20260507214604 54 45 3.5 8.7 0.00 1.00 1.00 92 1010.6
20260507213037 54 49 6.1 11.3 0.04 1.00 1.00 92 1010.6
20260507211545 55 34 2.6 11.3 0.10 1.00 1.00 93 1010.3
20260507210041 56 63 3.5 8.7 0.21 1.00 1.00 93 1010.0
20260507204530 56 317 2.6 5.2 0.23 1.00 1.00 93 1010.2
20260507203115 57 340 0.9 6.1 0.20 0.96 0.96 92 1009.7
20260507201632 58 42 1.7 8.7 0.14 0.90 0.90 92 1009.6
20260507200016 59 309 4.3 9.6 0.03 0.79 0.79 93 1009.8
20260507194555 60 98 3.5 10.4 0.01 0.77 0.77 92 1009.6
20260507193039 60 64 1.7 9.6 0.00 0.76 0.76 92 1009.5
20260507191524 61 84 1.7 9.6 0.00 0.76 0.76 92 1009.2
20260507190058 62 142 3.5 7.8 0.00 0.76 0.76 92 1008.8
20260507184555 63 302 0.9 7.8 0.00 0.76 0.76 91 1009.6
20260507183109 66 113 3.5 12.2 0.00 0.76 0.76 90 1008.8
20260507181532 70 219 0.0 3.5 0.00 0.76 0.76 94 1008.6
20260507180025 69 208 0.9 6.1 0.00 0.76 0.76 94 1008.9
20260507174504 69 199 2.6 6.1 0.00 0.76 0.76 94 1008.5
20260507173117 69 231 1.7 7.8 0.00 0.76 0.76 95 1008.5
20260507171547 69 205 0.9 2.6 0.00 0.76 0.76 94 1008.8
20260507170051 68 250 0.9 4.3 0.00 0.76 0.76 94 1009.4
20260507164537 68 224 2.6 5.2 0.00 0.76 0.76 94 1009.8
20260507163040 68 200 2.6 5.2 0.02 0.76 0.76 94 1009.9
20260507161511 68 208 1.7 5.2 0.04 0.76 0.76 94 1010.1
20260507160026 67 221 1.7 7.0 0.06 0.76 0.76 94 1009.9
20260507154533 67 227 2.6 5.2 0.11 0.76 0.76 94 1009.8
20260507153039 67 187 1.7 6.1 0.13 0.74 0.74 94 1010.0
20260507151511 67 120 0.9 8.7 0.14 0.72 0.72 94 1010.3
20260507150041 67 222 1.7 12.2 0.14 0.70 0.70 94 1010.6
20260507144522 67 227 2.6 7.8 0.10 0.64 0.64 94 1010.7
20260507143054 68 240 3.5 7.8 0.07 0.61 0.61 94 1010.8
20260507141558 68 196 0.0 2.6 0.04 0.57 0.57 94 1010.8
20260507140034 68 257 1.7 5.2 0.02 0.56 0.56 94 1010.8
20260507134535 68 202 1.7 3.5 0.00 0.54 0.54 93 1010.8
20260507133107 68 248 1.7 4.3 0.00 0.54 0.54 94 1010.7
20260507131546 68 236 3.5 6.1 0.00 0.54 0.54 94 1010.7
20260507130038 67 231 2.6 7.8 0.00 0.54 0.54 94 1010.5
20260507124535 67 251 0.9 8.7 0.00 0.54 0.54 94 1010.7
20260507123041 67 182 0.9 6.1 0.01 0.54 0.54 93 1011.0
20260507121543 67 252 0.9 3.5 0.01 0.54 0.54 93 1011.1
20260507120039 67 167 0.0 2.6 0.01 0.54 0.54 93 1011.2
20260507114555 67 239 0.9 6.1 0.02 0.54 0.54 93 1011.5
20260507113038 66 184 0.9 3.5 0.02 0.53 0.53 93 1011.6
20260507111537 66 234 0.9 4.3 0.02 0.53 0.53 93 1011.7
20260507110041 66 165 1.7 7.0 0.03 0.53 0.53 93 1011.5
20260507104539 66 207 1.7 7.0 0.02 0.52 0.52 92 1011.2
20260507103021 66 233 0.9 5.2 0.02 0.51 0.51 92 1011.2
20260507101603 66 226 0.9 5.2 0.02 0.51 0.51 92 1011.4
20260507094511 67 240 0.9 6.1 0.07 0.50 0.50 92 1010.9
20260507093023 66 217 0.9 5.2 0.10 0.49 0.49 92 1010.9
20260507091528 66 225 2.6 8.7 0.12 0.49 0.49 92 1011.0
20260507090043 66 220 2.6 7.8 0.12 0.48 0.48 92 1011.2
20260507084559 66 99 1.7 8.7 0.09 0.43 0.43 90 1011.6
20260507083051 66 237 1.7 5.2 0.06 0.39 0.39 90 1012.0
20260507081549 67 266 1.7 3.5 0.04 0.37 0.37 89 1011.8
20260507080053 66 141 0.0 0.9 0.02 0.35 0.36 87 1012.0
20260507074520 67 141 0.0 1.7 0.01 0.34 0.34 87 1012.2
20260507073048 67 140 0.0 2.6 0.00 0.33 0.33 87 1012.0
20260507071556 67 227 0.0 0.9 0.00 0.33 0.33 86 1012.1
20260507070106 67 227 0.0 0.0 0.00 0.33 0.33 85 1012.2
20260507064559 67 227 0.0 0.9 0.00 0.33 0.33 85 1012.5
20260507063036 67 227 0.0 1.7 0.01 0.33 0.33 85 1012.8
20260507061541 67 226 0.9 2.6 0.10 0.33 0.33 87 1013.2
20260507060038 67 219 0.0 1.7 0.23 0.33 0.33 85 1012.5
20260507054542 68 219 0.0 3.5 0.33 0.33 0.33 85 1012.6
20260507053048 68 113 0.9 3.5 0.32 0.32 0.32 84 1012.3
20260507051503 68 225 0.9 2.6 0.22 0.22 0.23 84 1014.3